Flag for U.S.A. Weather past 2 weeks in San Jose, California, U.S.A.

Now
71 °F

Passing clouds.


Feels Like: 75 °F
Forecast: 42 / 65 °F
Wind: 12 mph from West

Location: San Jose International Airport

Current Time: Jan 31, 2015 at 2:51:16 PM

Latest Report: Jan 31, 2015 at 1:53 PM


Visibility: 10 mi

Pressure: 29.95 "Hg

Humidity: 20%

Dew point: 28 °F

Location of San JoseLocation

Historic Weather in San Jose — Graph

°F

San Jose temperature yesterday

Maximum temperature yesterday: 67 °F (at 2:53 PM)
Minimum temperature yesterday: 47 °F (at 2:53 AM)
Average temperature yesterday: 54 °F

Past Weeks' High & Low Weather Summary

 TemperatureHumidityPressure
High69 °F (Jan 24, 3:53 PM)100% (Jan 19, 5:04 AM)30.36 "Hg (Jan 19, 5:04 AM)
Low37 °F (Jan 23, 5:53 AM)21% (Jan 31, 11:53 AM)29.89 "Hg (Jan 30, 3:53 PM)
Average53 °F75%30.15 "Hg
* Reported Jan 16 12:53 PM — Jan 31 12:53 PM, San Jose, Weather by CustomWeather, © 2014

Note: Actual official high and low records may vary slightly from our data, if they occured in-between our weather recording intervals... More about our weather records

Advertising

San Jose weather history for previous 24 hours

 ConditionsComfort  
Time TempWeatherWind HumidityBarometerVisibility
12:53 PM
Jan 31
69 °FPassing clouds.10 mph21%29.95 "Hg10 mi
11:53 AM68 °FPassing clouds.15 mph21%29.98 "Hg10 mi
10:53 AM66 °FPassing clouds.14 mph23%29.98 "Hg10 mi
9:53 AM63 °FSunny.14 mph27%29.98 "Hg10 mi
8:53 AM58 °FSunny.8 mph39%29.97 "Hg10 mi
7:53 AM50 °FSunny.3 mph57%29.95 "Hg10 mi
6:53 AM48 °FPassing clouds.No wind68%29.93 "Hg10 mi
5:53 AM43 °FClear.No wind97%29.92 "Hg10 mi
4:53 AM45 °FClear.No wind93%29.91 "Hg10 mi
3:53 AM45 °FClear.No wind97%29.90 "Hg10 mi
2:53 AM46 °FPassing clouds.3 mph93%29.91 "Hg10 mi
2:03 AM46 °FPassing clouds.No wind87%29.92 "Hg10 mi
1:53 AM46 °FClear.No wind93%29.92 "Hg10 mi
12:53 AM48 °FClear.No wind89%29.91 "Hg10 mi
11:53 PM
Jan 30
50 °FClear.No wind89%29.92 "Hg10 mi
10:53 PM51 °FClear.5 mph92%29.93 "Hg10 mi
9:53 PM53 °FClear.No wind89%29.93 "Hg10 mi
8:53 PM53 °FClear.No wind86%29.92 "Hg10 mi
7:53 PM53 °FClear.5 mph89%29.92 "Hg10 mi
6:53 PM54 °FClear.8 mph86%29.93 "Hg10 mi
5:53 PM57 °FClear.10 mph81%29.91 "Hg10 mi
4:53 PM62 °FSunny.9 mph62%29.89 "Hg10 mi
3:53 PM64 °FSunny.9 mph52%29.89 "Hg10 mi
2:53 PM67 °FSunny.13 mph42%29.90 "Hg10 mi
Weather by CustomWeather, © 2014

See weather overviewHow to use our weather pages